Wind_Speed
39 41 41 41 38 35 38 42 40 39 41 38 37 34 34 35 36 36 36 36 36 38 37 38 40 41 44 44 46 46 45 47
40 43 45 44 44 39 38 40 42 40 39 38 38 35 36 37 38 39 39 39 38 39 37 38 39 42 45 48 49 50 51 51
43 45 44 47 48 47 45 43 45 43 42 40 41 41 40 40 41 42 40 38 37 37 36 38 42 46 47 47 51 56 54 55
47 47 48 46 48 47 48 49 49 48 44 45 47 47 44 41 39 37 39 39 37 37 36 39 41 43 43 45 51 51 51 53
50 50 48 47 47 47 49 51 51 51 51 53 51 47 42 39 41 41 42 43 40 37 39 38 39 43 42 45 44 42 44 45
48 47 47 49 46 51 50 52 54 53 53 54 53 50 44 44 46 46 45 46 43 42 42 42 42 43 44 46 40 36 39 37
47 48 50 53 52 51 50 53 54 54 54 55 54 50 48 48 48 50 49 51 50 46 45 43 43 47 45 45 44 40 43 43
46 46 46 50 54 56 56 54 53 53 52 54 52 52 51 50 52 54 55 56 56 51 51 49 47 48 48 49 47 46 47 46
53 51 46 45 47 49 55 56 53 53 53 53 53 53 54 56 55 58 61 63 62 56 53 52 50 50 51 54 56 53 49 47
57 54 45 39 43 48 50 49 53 54 53 53 55 56 58 62 60 62 64 63 65 60 56 53 54 54 55 57 59 61 57 57
56 55 52 43 40 45 48 50 51 53 52 53 54 55 59 60 59 62 65 65 63 64 60 56 57 56 59 62 62 63 63 66
57 52 50 44 40 40 41 44 47 52 54 56 56 58 59 57 57 59 63 59 61 66 63 61 61 59 61 64 68 67 66 71
56 55 55 50 47 44 44 44 47 53 52 51 51 53 54 54 56 57 58 60 62 67 67 67 66 58 66 67 66 68 71 49
60 60 60 59 56 52 47 46 48 50 52 52 51 52 54 55 56 57 60 62 64 67 71 62 59 63 70 69 68 47 29 30
63 61 61 61 60 58 53 50 43 43 48 53 54 58 58 58 57 59 61 63 64 70 64 71 71 67 72 65 45 31 30 33
63 65 64 62 62 56 52 43 34 36 42 42 45 52 54 55 55 57 62 62 68 67 64 65 76 73 60 34 38 37 35 37
66 63 63 65 64 59 53 41 36 32 31 41 45 41 49 51 53 55 55 59 54 63 69 48 41 35 40 30 33 43 44 43
62 52 45 35 34 34 37 31 33 38 41 40 42 48 45 48 46 47 42 42 45 50 33 40 41 40 35 41 42 47 51 51
45 40 34 32 35 33 36 39 43 42 37 36 34 35 37 37 42 46 48 44 52 59 44 49 41 40 45 45 51 52 52 54
Wind_Direction
275 272 263 259 257 256 259 258 255 257 260 262 263 262 264 268 267 264 263 262 264 266 267 268 270 272 270 270 269 268 269 269
267 267 270 268 263 259 260 262 261 255 258 261 262 261 259 261 263 262 260 262 265 267 270 271 275 276 274 272 269 269 271 270
270 269 265 269 270 265 260 256 257 256 255 257 258 255 255 256 258 259 262 266 266 268 271 273 274 274 278 287 283 274 270 273
270 270 268 263 265 267 265 258 252 253 253 252 252 254 255 257 260 264 265 264 263 266 273 277 284 288 290 290 288 288 283 283
266 269 268 268 264 260 258 260 259 255 252 253 256 256 253 254 255 256 260 265 270 270 274 276 278 286 285 285 290 289 280 286
267 264 265 265 258 255 254 254 255 255 254 253 252 253 251 253 255 258 261 265 268 270 274 276 275 279 281 290 286 273 282 284
272 270 265 265 263 257 254 251 251 252 253 253 252 249 249 253 256 259 261 264 264 266 271 270 272 276 279 282 285 274 281 281
273 272 266 262 262 258 255 249 248 247 249 252 253 253 251 252 255 258 260 263 264 268 269 269 271 271 276 280 277 273 276 278
271 272 271 266 264 259 256 252 243 242 242 244 248 250 250 251 253 253 256 259 265 265 265 269 271 272 276 278 278 273 273 276
268 270 268 260 258 257 253 252 252 248 243 242 245 247 248 251 250 250 253 257 262 266 267 269 271 274 273 276 274 274 272 272
263 264 266 262 254 255 254 254 255 254 252 248 246 247 248 249 248 248 251 252 260 263 266 270 271 273 271 274 274 273 276 272
261 261 259 257 251 251 251 248 250 254 251 247 246 244 244 246 249 251 256 256 258 263 267 268 270 270 271 273 272 274 274 271
256 259 258 259 258 255 251 250 248 248 251 252 249 247 248 251 251 251 254 256 260 260 263 265 266 271 272 271 270 274 274 251
256 258 259 260 263 263 257 250 249 251 252 252 254 256 255 256 258 259 258 258 257 258 265 268 269 266 271 275 284 266 264 267
255 258 260 263 266 269 269 269 263 254 250 249 250 250 253 255 259 261 257 259 261 258 255 259 264 262 264 261 254 273 281 261
255 257 260 261 266 270 270 269 259 250 250 256 248 245 249 253 252 254 256 257 258 256 251 258 255 254 260 249 253 275 270 259
251 255 258 263 267 267 263 256 257 265 259 246 248 255 246 245 249 249 253 258 254 256 248 260 256 249 248 272 276 265 266 259
238 241 245 250 253 251 254 262 272 270 273 275 278 282 281 265 280 282 264 252 244 248 260 266 259 254 254 263 264 266 261 253
266 266 263 267 276 274 269 270 279 281 274 277 277 277 277 279 278 279 281 279 273 271 258 270 252 260 265 272 265 269 257 251
Height
5733 5733 5732 5729 5729 5733 5735 5735 5737 5738 5738 5740 5740 5741 5741 5743 5745 5745 5746 5747 5748 5749 5750 5750 5750 5751 5750 5750 5750 5749 5748 5747
5722 5722 5723 5724 5723 5726 5726 5726 5728 5728 5729 5731 5732 5733 5732 5734 5736 5736 5738 5739 5740 5741 5742 5742 5743 5743 5742 5741 5741 5739 5738 5737
5711 5712 5713 5714 5714 5717 5718 5717 5716 5719 5720 5721 5722 5723 5723 5724 5725 5727 5729 5730 5731 5732 5734 5734 5734 5734 5733 5732 5731 5729 5727 5727
5700 5699 5699 5703 5702 5707 5710 5708 5706 5707 5710 5710 5710 5712 5713 5715 5718 5719 5719 5720 5722 5723 5725 5725 5725 5724 5724 5722 5721 5720 5720 5718
5686 5687 5687 5686 5692 5692 5695 5697 5698 5698 5699 5699 5701 5704 5705 5707 5706 5707 5708 5709 5712 5714 5715 5715 5715 5715 5713 5713 5710 5708 5709 5708
5674 5674 5674 5673 5676 5677 5681 5683 5685 5687 5688 5689 5691 5693 5694 5694 5694 5696 5698 5699 5702 5703 5704 5705 5705 5704 5704 5705 5702 5702 5700 5698
5659 5660 5661 5660 5662 5663 5666 5670 5672 5674 5675 5676 5679 5681 5682 5683 5684 5686 5688 5688 5689 5692 5693 5694 5693 5693 5694 5692 5693 5691 5690 5688
5642 5644 5646 5645 5649 5650 5651 5655 5657 5660 5662 5663 5665 5668 5670 5672 5673 5674 5676 5676 5677 5681 5681 5682 5683 5682 5681 5681 5680 5680 5679 5678
5627 5629 5631 5632 5635 5637 5640 5642 5641 5645 5648 5649 5651 5654 5657 5658 5661 5664 5664 5663 5664 5667 5669 5671 5671 5672 5671 5670 5670 5669 5667 5667
5615 5615 5616 5619 5622 5625 5628 5631 5632 5634 5635 5636 5637 5640 5643 5644 5648 5650 5651 5652 5651 5655 5657 5659 5660 5660 5659 5659 5657 5656 5654 5653
5603 5603 5604 5605 5608 5611 5615 5618 5619 5622 5624 5624 5625 5627 5628 5630 5633 5635 5637 5638 5640 5643 5645 5645 5646 5647 5646 5645 5644 5643 5641 5638
5589 5590 5592 5593 5596 5597 5601 5604 5607 5609 5610 5611 5612 5614 5615 5618 5621 5623 5623 5626 5630 5629 5631 5633 5632 5632 5632 5629 5629 5627 5627 5626
5575 5577 5579 5582 5585 5586 5589 5591 5594 5596 5599 5600 5602 5602 5604 5607 5610 5613 5614 5617 5617 5616 5617 5619 5618 5617 5616 5615 5615 5613 5612 5613
5560 5562 5564 5564 5567 5571 5576 5579 5581 5582 5585 5587 5589 5591 5592 5594 5597 5599 5600 5601 5602 5604 5600 5603 5604 5603 5601 5598 5600 5600 5605 5608
5543 5547 5549 5550 5553 5556 5559 5562 5565 5567 5569 5572 5575 5576 5578 5580 5581 5583 5584 5586 5587 5588 5590 5592 5590 5588 5587 5586 5589 5591 5592 5595
5527 5530 5533 5535 5537 5540 5543 5546 5550 5553 5555 5556 5558 5560 5562 5564 5566 5568 5569 5570 5570 5573 5576 5574 5571 5568 5570 5574 5578 5578 5581 5583
5511 5516 5520 5522 5525 5527 5529 5533 5536 5539 5542 5546 5547 5549 5548 5549 5552 5553 5555 5556 5559 5558 5553 5553 5555 5559 5561 5563 5566 5569 5570 5572
5496 5501 5506 5510 5513 5516 5518 5520 5523 5527 5529 5530 5532 5535 5538 5540 5542 5545 5544 5543 5543 5545 5545 5547 5548 5549 5552 5555 5557 5558 5560 5560
5488 5490 5492 5494 5499 5502 5504 5509 5514 5516 5517 5518 5518 5519 5521 5522 5524 5526 5529 5530 5534 5536 5537 5537 5539 5541 5541 5544 5544 5544 5546 5548